• In Portugal
  • List of Countries
  • For 7 days
  • Water Temperature
  • Satellite Maps
  • Weather Map
  • Weather Widgets
  • user-avatar
    Login

    Hourly Weather Pinsa

    Today, 23 August, Wednesday

    Time Temperature Precipitation Wind Pressure Humidity
    00:00 +30°C° 0 mm 3 mps 734 mmHg 63%
    01:00 +30°C° 0 mm 3 mps 733 mmHg 66%
    02:00 +29°C° 0 mm 4 mps 733 mmHg 69%
    03:00 +29°C° 0 mm 5 mps 733 mmHg 71%
    04:00 +29°C° 0 mm 5 mps 733 mmHg 72%
    05:00 +28°C° 0 mm 6 mps 733 mmHg 74%
    06:00 +28°C° 0 mm 6 mps 733 mmHg 75%
    07:00 +29°C° 0 mm 5 mps 733 mmHg 70%
    08:00 +30°C° 0 mm 5 mps 734 mmHg 65%
    09:00 +32°C° 0 mm 5 mps 734 mmHg 60%
    10:00 +33°C° 0 mm 4 mps 734 mmHg 56%
    11:00 +34°C° 0 mm 3 mps 734 mmHg 52%
    12:00 +35°C° 0 mm 2 mps 734 mmHg 48%
    13:00 +35°C° 0 mm 2 mps 734 mmHg 47%
    14:00 +35°C° 0 mm 2 mps 733 mmHg 47%
    15:00 +35°C° 0 mm 3 mps 732 mmHg 46%
    16:00 +35°C° 0 mm 3 mps 732 mmHg 47%
    17:00 +35°C° 0 mm 3 mps 732 mmHg 48%
    18:00 +35°C° 0 mm 3 mps 733 mmHg 49%
    19:00 +34°C° 0 mm 4 mps 733 mmHg 52%
    20:00 +33°C° 0 mm 4 mps 733 mmHg 56%
    21:00 +32°C° 0 mm 5 mps 733 mmHg 59%
    22:00 +32°C° 0 mm 6 mps 733 mmHg 61%
    23:00 +30°C° 0 mm 6 mps 733 mmHg 63%

    Tomorrow, 24 August, Thursday

    Time Temperature Precipitation Wind Pressure Humidity
    00:00 +30°C° 0 mm 7 mps 732 mmHg 65%
    01:00 +29°C° 0 mm 7 mps 732 mmHg 67%
    02:00 +29°C° 0 mm 6 mps 732 mmHg 69%
    03:00 +29°C° 0 mm 6 mps 731 mmHg 70%
    04:00 +29°C° 1.6 mm 6 mps 732 mmHg 70%
    05:00 +28°C° 1.6 mm 5 mps 732 mmHg 71%
    06:00 +28°C° 1.6 mm 5 mps 733 mmHg 71%
    07:00 +28°C° 1.7 mm 5 mps 734 mmHg 70%
    08:00 +28°C° 1.7 mm 6 mps 734 mmHg 70%
    09:00 +28°C° 1.7 mm 6 mps 735 mmHg 70%
    10:00 +29°C° 0.3 mm 6 mps 734 mmHg 66%
    11:00 +30°C° 0.3 mm 6 mps 734 mmHg 62%
    12:00 +32°C° 0.3 mm 6 mps 734 mmHg 58%
    13:00 +33°C° 0 mm 5 mps 733 mmHg 56%
    14:00 +33°C° 0 mm 5 mps 733 mmHg 53%
    15:00 +33°C° 0 mm 5 mps 732 mmHg 51%
    16:00 +33°C° 0 mm 5 mps 732 mmHg 53%
    17:00 +32°C° 0 mm 4 mps 732 mmHg 55%
    18:00 +32°C° 0 mm 4 mps 732 mmHg 58%
    19:00 +30°C° 0 mm 3 mps 733 mmHg 59%
    20:00 +30°C° 0 mm 2 mps 733 mmHg 61%
    21:00 +29°C° 0 mm 2 mps 734 mmHg 63%
    22:00 +29°C° 0 mm 1 mps 733 mmHg 64%
    23:00 +29°C° 0 mm 1 mps 733 mmHg 66%

    Day after tomorrow, 25 August, Friday

    Time Temperature Precipitation Wind Pressure Humidity
    00:00 +29°C° 0 mm 1 mps 733 mmHg 67%
    01:00 +29°C° 0 mm 1 mps 733 mmHg 68%
    02:00 +28°C° 0 mm 1 mps 732 mmHg 69%
    03:00 +28°C° 0 mm 1 mps 732 mmHg 70%
    04:00 +28°C° 0.1 mm 1 mps 733 mmHg 71%
    05:00 +28°C° 0.1 mm 2 mps 733 mmHg 72%
    06:00 +27°C° 0.1 mm 2 mps 733 mmHg 72%
    07:00 +28°C° 0.8 mm 2 mps 734 mmHg 69%
    08:00 +29°C° 0.8 mm 3 mps 734 mmHg 65%
    09:00 +30°C° 0.8 mm 3 mps 735 mmHg 61%
    10:00 +31°C° 0.6 mm 3 mps 734 mmHg 57%
    11:00 +33°C° 0.6 mm 4 mps 734 mmHg 54%
    12:00 +34°C° 0.6 mm 4 mps 734 mmHg 50%
    13:00 +35°C° 0 mm 4 mps 733 mmHg 48%
    14:00 +35°C° 0 mm 4 mps 732 mmHg 47%
    15:00 +36°C° 0 mm 4 mps 732 mmHg 45%
    16:00 +36°C° 0 mm 4 mps 732 mmHg 46%
    17:00 +35°C° 0 mm 4 mps 732 mmHg 47%
    18:00 +35°C° 0 mm 3 mps 732 mmHg 49%
    19:00 +34°C° 0 mm 4 mps 733 mmHg 52%
    20:00 +33°C° 0 mm 4 mps 733 mmHg 55%
    21:00 +33°C° 0 mm 5 mps 734 mmHg 58%
    22:00 +32°C° 0 mm 4 mps 734 mmHg 60%
    23:00 +31°C° 0 mm 3 mps 734 mmHg 62%

    26 August, Saturday

    Time Temperature Precipitation Wind Pressure Humidity
    00:00 +30°C° 0 mm 2 mps 734 mmHg 65%
    01:00 +30°C° 0 mm 2 mps 733 mmHg 66%
    02:00 +30°C° 0 mm 2 mps 733 mmHg 67%
    03:00 +29°C° 0 mm 2 mps 732 mmHg 68%
    04:00 +29°C° 0 mm 2 mps 733 mmHg 70%
    05:00 +29°C° 0 mm 3 mps 733 mmHg 71%
    06:00 +28°C° 0 mm 3 mps 733 mmHg 72%
    07:00 +30°C° 0 mm 4 mps 733 mmHg 67%
    08:00 +32°C° 0 mm 5 mps 734 mmHg 63%
    09:00 +33°C° 0 mm 6 mps 734 mmHg 58%
    10:00 +34°C° 0 mm 5 mps 734 mmHg 53%
    11:00 +35°C° 0 mm 5 mps 734 mmHg 47%
    12:00 +37°C° 0 mm 4 mps 734 mmHg 42%
    13:00 +37°C° 0 mm 4 mps 733 mmHg 41%
    14:00 +37°C° 0 mm 4 mps 733 mmHg 41%
    15:00 +37°C° 0 mm 4 mps 732 mmHg 40%
    16:00 +37°C° 0 mm 4 mps 732 mmHg 41%
    17:00 +36°C° 0 mm 4 mps 732 mmHg 43%
    18:00 +36°C° 0 mm 4 mps 732 mmHg 44%
    19:00 +35°C° 0 mm 4 mps 733 mmHg 46%
    20:00 +35°C° 0 mm 4 mps 733 mmHg 48%
    21:00 +34°C° 0 mm 4 mps 733 mmHg 49%
    22:00 +34°C° 0 mm 4 mps 733 mmHg 52%
    23:00 +33°C° 0 mm 3 mps 733 mmHg 55%

    27 August, Sunday

    Time Temperature Precipitation Wind Pressure Humidity
    00:00 +33°C° 0 mm 3 mps 733 mmHg 57%
    01:00 +32°C° 0 mm 4 mps 733 mmHg 58%
    02:00 +32°C° 0 mm 5 mps 733 mmHg 60%
    03:00 +32°C° 0 mm 5 mps 732 mmHg 61%
    04:00 +30°C° 0 mm 5 mps 733 mmHg 62%
    05:00 +30°C° 0 mm 4 mps 733 mmHg 64%
    06:00 +30°C° 0 mm 4 mps 734 mmHg 66%
    07:00 +32°C° 0 mm 4 mps 734 mmHg 62%
    08:00 +33°C° 0 mm 5 mps 735 mmHg 59%
    09:00 +34°C° 0 mm 6 mps 735 mmHg 55%
    10:00 +35°C° 0 mm 5 mps 735 mmHg 51%
    11:00 +36°C° 0 mm 5 mps 734 mmHg 46%
    12:00 +39°C° 0 mm 5 mps 734 mmHg 41%
    13:00 +38°C° 0 mm 4 mps 733 mmHg 41%
    14:00 +38°C° 0 mm 4 mps 732 mmHg 40%
    15:00 +38°C° 0 mm 4 mps 732 mmHg 40%
    16:00 +37°C° 0 mm 4 mps 732 mmHg 42%
    17:00 +37°C° 0 mm 5 mps 732 mmHg 44%
    18:00 +36°C° 0 mm 5 mps 732 mmHg 46%
    19:00 +36°C° 0 mm 5 mps 732 mmHg 48%
    20:00 +35°C° 0 mm 6 mps 733 mmHg 51%
    21:00 +34°C° 0 mm 6 mps 733 mmHg 53%
    22:00 +34°C° 0 mm 6 mps 733 mmHg 56%
    23:00 +33°C° 0 mm 6 mps 733 mmHg 58%

    28 August, Monday

    Time Temperature Precipitation Wind Pressure Humidity
    00:00 +33°C° 0 mm 6 mps 733 mmHg 61%
    01:00 +32°C° 0.1 mm 6 mps 733 mmHg 62%
    02:00 +32°C° 0.1 mm 6 mps 732 mmHg 64%
    03:00 +30°C° 0.1 mm 6 mps 732 mmHg 65%
    04:00 +30°C° 0.1 mm 6 mps 733 mmHg 67%
    05:00 +30°C° 0.1 mm 6 mps 733 mmHg 69%
    06:00 +29°C° 0.1 mm 6 mps 734 mmHg 70%
    07:00 +30°C° 0 mm 6 mps 734 mmHg 67%
    08:00 +32°C° 0 mm 7 mps 735 mmHg 63%
    09:00 +33°C° 0 mm 7 mps 735 mmHg 59%
    10:00 +34°C° 0 mm 7 mps 734 mmHg 54%
    11:00 +36°C° 0 mm 6 mps 734 mmHg 49%
    12:00 +38°C° 0 mm 6 mps 734 mmHg 43%
    13:00 +39°C° 0 mm 6 mps 733 mmHg 41%
    14:00 +39°C° 0 mm 5 mps 732 mmHg 39%
    15:00 +40°C° 0 mm 5 mps 731 mmHg 37%
    16:00 +40°C° 0 mm 4 mps 732 mmHg 38%
    17:00 +38°C° 0 mm 4 mps 732 mmHg 39%
    18:00 +38°C° 0 mm 4 mps 732 mmHg 40%
    19:00 +37°C° 0 mm 5 mps 732 mmHg 45%
    20:00 +36°C° 0 mm 6 mps 733 mmHg 50%
    21:00 +34°C° 0 mm 7 mps 733 mmHg 55%
    22:00 +33°C° 0.1 mm 7 mps 733 mmHg 60%
    23:00 +32°C° 0.1 mm 6 mps 733 mmHg 64%
    Show more